Flag for Germany Weather past 2 weeks in Rheda-Wiedenbrück, North Rhine-Westphalia, Germany

Now
66 °F

Scattered clouds.


Feels Like: 66 °F
Forecast: 53 / 71 °F
Wind: 7 mph from West

Location: Paderborn / Lippstadt

Current Time: Oct 1, 2014 at 4:43:24 PM

Latest Report: Oct 1, 2014 at 4:20 PM


Visibility: N/A

Pressure: 30.30 "Hg

Humidity: 64%

Dew point: 54 °F

Location of Rheda-WiedenbrückLocation

Historic Weather in Rheda-Wiedenbrück — Graph

°F

Rheda-Wiedenbrück temperature yesterday

Maximum temperature yesterday: 66 °F (at 3:50 PM)
Minimum temperature yesterday: 54 °F (at 11:20 PM)
Average temperature yesterday: 60 °F

Past Weeks' High & Low Weather Summary

 TemperatureHumidityPressure
High73 °F (Sep 17, 4:20 PM)100% (Sep 17, 3:20 AM)30.39 "Hg (Sep 17, 3:20 AM)
Low43 °F (Sep 24, 7:20 AM)47% (Sep 29, 2:20 PM)29.83 "Hg (Sep 24, 5:20 PM)
Average59 °F82%30.09 "Hg
* Reported Sep 16 3:20 PM — Oct 1 3:50 PM, Rheda-Wiedenbrück, Weather by CustomWeather, © 2014

Note: Actual official high and low records may vary slightly from our data, if they occured in-between our weather recording intervals... More about our weather records

Advertising

Rheda-Wiedenbrück weather history for previous 24 hours

 ConditionsComfort  
Time TempWeatherWind HumidityBarometerVisibility
3:50 PM
Oct 1
66 °FScattered clouds.5 mph64%30.30 "HgN/A
3:20 PM66 °FScattered clouds.6 mph64%30.30 "HgN/A
2:50 PM66 °FBroken clouds.6 mph68%30.33 "HgN/A
2:20 PM66 °FBroken clouds.6 mph60%30.33 "Hg5 mi
1:50 PM66 °FBroken clouds.6 mph64%30.33 "Hg5 mi
1:20 PM64 °FBroken clouds.5 mph73%30.33 "Hg4 mi
12:50 PM63 °FBroken clouds.3 mph77%30.33 "Hg4 mi
12:20 PM63 °FBroken clouds.5 mph77%30.33 "Hg3 mi
11:50 AM61 °FScattered clouds.3 mph83%30.33 "Hg4 mi
11:20 AM61 °FScattered clouds.3 mph83%30.33 "Hg4 mi
10:50 AM63 °FScattered clouds.3 mph73%30.33 "Hg4 mi
10:20 AM59 °FScattered clouds.2 mph94%30.33 "Hg4 mi
9:50 AM59 °FScattered clouds.6 mph88%30.33 "Hg4 mi
9:20 AM59 °FScattered clouds.6 mph88%30.30 "Hg4 mi
8:50 AM57 °FClear.8 mph94%30.30 "Hg4 mi
8:20 AM55 °FClear.7 mph100%30.30 "Hg3 mi
7:50 AM55 °FClear.8 mph94%30.30 "Hg3 mi
7:20 AM54 °FClear.3 mph100%30.30 "Hg3 mi
6:50 AM54 °FClear.2 mph94%30.30 "Hg2 mi
6:20 AM52 °FClear.3 mph100%30.30 "Hg4 mi
5:50 AM52 °FClear.2 mph100%30.30 "Hg5 mi
5:20 AM52 °FClear.2 mph100%30.30 "Hg5 mi
4:50 AM55 °FClear.3 mph94%30.30 "Hg5 mi
4:20 AM54 °FClear.3 mph100%30.30 "Hg5 mi
3:50 AM54 °FClear.1 mph100%30.30 "Hg5 mi
3:20 AM52 °FClear.2 mph100%30.30 "Hg5 mi
12:20 AM54 °FClear.2 mph94%30.30 "Hg5 mi
11:50 PM
Sep 30
54 °FClear.2 mph100%30.30 "Hg5 mi
11:20 PM54 °FClear.2 mph100%30.30 "Hg5 mi
10:50 PM55 °FClear.2 mph100%30.30 "Hg5 mi
10:20 PM55 °FClear.1 mph94%30.30 "Hg10 mi
9:50 PM55 °FPassing clouds.1 mph94%30.30 "HgN/A
9:20 PM57 °FPassing clouds.6 mph88%30.30 "HgN/A
8:50 PM59 °FPassing clouds.3 mph82%30.30 "HgN/A
8:20 PM57 °FPassing clouds.3 mph94%30.30 "HgN/A
7:50 PM57 °FScattered clouds.3 mph88%30.30 "HgN/A
7:20 PM59 °FScattered clouds.5 mph82%30.30 "Hg4 mi
6:50 PM61 °FScattered clouds.5 mph83%30.27 "HgN/A
6:20 PM63 °FScattered clouds.5 mph77%30.27 "HgN/A
5:50 PM63 °FScattered clouds.6 mph77%30.27 "HgN/A
5:20 PM64 °FScattered clouds.6 mph68%30.27 "HgN/A
4:50 PM66 °FScattered clouds.6 mph64%30.27 "HgN/A
4:20 PM66 °FScattered clouds.7 mph64%30.27 "HgN/A
Weather by CustomWeather, © 2014

See weather overviewHow to use our weather pages